Location: Esterri de Aneo
(42.6284°N, 1.1223°E)
Time: 15:08:25
(UTC+00:00)

Cosmos 2219 - Pass Details

Date: 11 December 2025
Orbit: 830 x 860 km, 71.1° (Epoch: 19 January)

Event Time Altitude Azimuth Distance (km) Brightness Sun altitude
Rises 18:06:52 0° 339° (NNW) 3,434 6.5 -18.5°
Reaches altitude 10° 18:09:24 10° 344° (NNW) 2,498 5.7 -19.0°
Maximum altitude 18:15:00 52° 61° (ENE) 1,058 3.3 -20.0°
Enters shadow 18:18:24 23° 128° (SE) 1,734 4.5 -20.6°
